Time,TemperatureF,DewpointF,PressureIn,WindDirection,WindDirectionDegrees,WindSpeedMPH,WindSpeedGustMPH,Humidity,HourlyPrecipIn,Conditions,Clouds,dailyrainin,SolarRadiationWatts/m^2,SoftwareType,DateUTC
2013-08-17 00:01:00,59.0,52.0,-100.00,WSW,245,3.0,5.0,79,0.00,,,-99.99,0.000000,,2013-08-17 07:01:00,
2013-08-17 00:11:00,59.0,52.0,-100.00,WSW,245,3.0,5.0,79,0.00,,,-99.99,0.000000,,2013-08-17 07:11:00,
2013-08-17 00:42:00,58.0,52.0,-100.00,SSW,197,2.0,3.0,79,0.00,,,-99.99,0.000000,,2013-08-17 07:42:00,
2013-08-17 00:52:00,58.0,52.0,-100.00,SSW,197,2.0,3.0,79,0.00,,,-99.99,0.000000,,2013-08-17 07:52:00,
2013-08-17 01:01:00,58.0,52.0,-100.00,SSW,197,2.0,3.0,79,0.00,,,-99.99,0.000000,,2013-08-17 08:01:00,
2013-08-17 01:11:00,58.0,52.0,-100.00,SSW,197,2.0,3.0,79,0.00,,,-99.99,0.000000,,2013-08-17 08:11:00,
2013-08-17 01:42:00,57.0,52.0,-100.00,SSW,205,2.0,6.0,83,0.00,,,0.00,0.000000,,2013-08-17 08:42:00,
2013-08-17 01:52:00,57.0,52.0,-100.00,SSW,205,2.0,6.0,83,0.00,,,0.00,0.000000,,2013-08-17 08:52:00,
2013-08-17 02:01:00,57.0,52.0,-100.00,SSW,205,2.0,6.0,83,0.00,,,0.00,0.000000,,2013-08-17 09:01:00,
2013-08-17 02:11:00,57.0,52.0,-100.00,SSW,205,2.0,6.0,83,0.00,,,0.00,0.000000,,2013-08-17 09:11:00,
2013-08-17 02:43:00,57.0,51.0,-100.00,WSW,249,3.0,5.0,79,0.00,,,0.00,0.000000,,2013-08-17 09:43:00,
2013-08-17 02:53:00,57.0,51.0,-100.00,WSW,249,3.0,5.0,79,0.00,,,0.00,0.000000,,2013-08-17 09:53:00,
2013-08-17 03:03:00,57.0,51.0,-100.00,WSW,249,3.0,5.0,79,0.00,,,0.00,0.000000,,2013-08-17 10:03:00,
2013-08-17 03:12:00,57.0,51.0,-100.00,WSW,249,3.0,5.0,79,0.00,,,0.00,0.000000,,2013-08-17 10:12:00,
2013-08-17 03:42:00,55.0,48.0,-100.00,WSW,248,4.0,6.0,78,0.00,,,0.00,0.000000,,2013-08-17 10:42:00,
2013-08-17 03:52:00,55.0,48.0,-100.00,WSW,248,4.0,6.0,78,0.00,,,0.00,0.000000,,2013-08-17 10:52:00,
2013-08-17 04:02:00,55.0,48.0,-100.00,WSW,248,4.0,6.0,78,0.00,,,0.00,0.000000,,2013-08-17 11:02:00,
2013-08-17 04:11:00,55.0,48.0,-100.00,WSW,248,4.0,6.0,78,0.00,,,0.00,0.000000,,2013-08-17 11:11:00,
2013-08-17 04:42:00,54.0,50.0,-100.00,SSW,192,4.0,6.0,85,0.00,,,0.00,0.000000,,2013-08-17 11:42:00,
2013-08-17 04:52:00,54.0,50.0,-100.00,SSW,192,4.0,6.0,85,0.00,,,0.00,0.000000,,2013-08-17 11:52:00,
2013-08-17 05:01:00,54.0,50.0,-100.00,SSW,192,4.0,6.0,85,0.00,,,0.00,0.000000,,2013-08-17 12:01:00,
2013-08-17 05:11:00,54.0,50.0,-100.00,SSW,192,4.0,6.0,85,0.00,,,0.00,0.000000,,2013-08-17 12:11:00,
2013-08-17 05:42:00,53.0,50.0,-100.00,SSE,166,3.0,7.0,89,0.00,,,0.00,0.000000,,2013-08-17 12:42:00,
2013-08-17 05:52:00,53.0,50.0,-100.00,SSE,166,3.0,7.0,89,0.00,,,0.00,0.000000,,2013-08-17 12:52:00,
2013-08-17 06:01:00,53.0,50.0,-100.00,SSE,166,3.0,7.0,89,0.00,,,0.00,0.000000,,2013-08-17 13:01:00,
2013-08-17 06:11:00,53.0,50.0,-100.00,SSE,166,3.0,7.0,89,0.00,,,0.00,0.000000,,2013-08-17 13:11:00,
2013-08-17 06:42:00,53.0,48.0,-100.00,WSW,242,3.0,5.0,84,0.00,,,0.00,0.000000,,2013-08-17 13:42:00,
2013-08-17 06:52:00,53.0,48.0,-100.00,WSW,242,3.0,5.0,84,0.00,,,0.00,0.000000,,2013-08-17 13:52:00,
2013-08-17 07:01:00,53.0,48.0,-100.00,WSW,242,3.0,5.0,84,0.00,,,0.00,0.000000,,2013-08-17 14:01:00,
2013-08-17 07:11:00,53.0,48.0,-100.00,WSW,242,3.0,5.0,84,0.00,,,0.00,0.000000,,2013-08-17 14:11:00,
2013-08-17 07:42:00,54.0,48.0,-100.00,SW,223,2.0,6.0,80,0.00,,,0.00,18.000000,,2013-08-17 14:42:00,
2013-08-17 07:52:00,54.0,48.0,-100.00,SW,223,2.0,6.0,80,0.00,,,0.00,18.000000,,2013-08-17 14:52:00,
2013-08-17 08:01:00,54.0,48.0,-100.00,SW,223,2.0,6.0,80,0.00,,,0.00,18.000000,,2013-08-17 15:01:00,
2013-08-17 08:11:00,54.0,48.0,-100.00,SW,223,2.0,6.0,80,0.00,,,0.00,18.000000,,2013-08-17 15:11:00,
2013-08-17 08:44:00,58.0,47.0,-100.00,SW,227,2.0,5.0,66,0.00,,,0.00,86.000000,,2013-08-17 15:44:00,
2013-08-17 08:53:00,58.0,47.0,-100.00,SW,227,2.0,5.0,66,0.00,,,0.00,86.000000,,2013-08-17 15:53:00,
2013-08-17 09:03:00,58.0,47.0,-100.00,SW,227,2.0,5.0,66,0.00,,,0.00,86.000000,,2013-08-17 16:03:00,
2013-08-17 09:12:00,58.0,47.0,-100.00,SW,227,2.0,5.0,66,0.00,,,0.00,86.000000,,2013-08-17 16:12:00,
2013-08-17 10:12:00,68.0,52.0,-100.00,SSE,147,3.0,6.0,57,0.00,,,0.00,259.000000,,2013-08-17 17:12:00,
2013-08-17 10:42:00,72.0,52.0,-100.00,SSE,149,4.0,8.0,49,0.00,,,0.00,388.000000,,2013-08-17 17:42:00,
2013-08-17 10:52:00,72.0,52.0,-100.00,SSE,149,4.0,8.0,49,0.00,,,0.00,388.000000,,2013-08-17 17:52:00,
2013-08-17 11:02:00,72.0,52.0,-100.00,SSE,149,4.0,8.0,49,0.00,,,0.00,388.000000,,2013-08-17 18:02:00,
2013-08-17 11:11:00,72.0,52.0,-100.00,SSE,149,4.0,8.0,49,0.00,,,0.00,388.000000,,2013-08-17 18:11:00,
2013-08-17 12:11:00,80.0,53.0,-100.00,SE,133,7.0,15.0,39,0.00,,,0.00,731.000000,,2013-08-17 19:11:00,
2013-08-17 12:42:00,79.0,54.0,-100.00,NNE,15,8.0,16.0,42,0.00,,,0.00,825.000000,,2013-08-17 19:42:00,
2013-08-17 12:52:00,79.0,54.0,-100.00,NNE,15,8.0,16.0,42,0.00,,,0.00,825.000000,,2013-08-17 19:52:00,
2013-08-17 13:02:00,79.0,54.0,-100.00,NNE,15,8.0,16.0,42,0.00,,,0.00,825.000000,,2013-08-17 20:02:00,
2013-08-17 13:11:00,79.0,54.0,-100.00,NNE,15,8.0,16.0,42,0.00,,,0.00,825.000000,,2013-08-17 20:11:00,
2013-08-17 13:42:00,80.0,52.0,-100.00,NNE,31,6.0,14.0,38,0.00,,,0.00,451.000000,,2013-08-17 20:42:00,
2013-08-17 13:52:00,80.0,52.0,-100.00,NNE,31,6.0,14.0,38,0.00,,,0.00,451.000000,,2013-08-17 20:52:00,
2013-08-17 14:01:00,80.0,52.0,-100.00,NNE,31,6.0,14.0,38,0.00,,,0.00,451.000000,,2013-08-17 21:01:00,
2013-08-17 14:11:00,80.0,52.0,-100.00,NNE,31,6.0,14.0,38,0.00,,,0.00,451.000000,,2013-08-17 21:11:00,
2013-08-17 14:42:00,83.0,51.0,-100.00,North,2,6.0,16.0,33,0.00,,,0.00,630.000000,,2013-08-17 21:42:00,
2013-08-17 14:53:00,83.0,51.0,-100.00,North,2,6.0,16.0,33,0.00,,,0.00,630.000000,,2013-08-17 21:53:00,
2013-08-17 15:03:00,83.0,51.0,-100.00,North,2,6.0,16.0,33,0.00,,,0.00,630.000000,,2013-08-17 22:03:00,
2013-08-17 15:12:00,83.0,51.0,-100.00,North,2,6.0,16.0,33,0.00,,,0.00,630.000000,,2013-08-17 22:12:00,
2013-08-17 15:42:00,82.0,50.0,-100.00,North,357,9.0,17.0,33,0.00,,,0.00,672.000000,,2013-08-17 22:42:00,
2013-08-17 15:52:00,82.0,50.0,-100.00,North,357,9.0,17.0,33,0.00,,,0.00,672.000000,,2013-08-17 22:52:00,
2013-08-17 16:02:00,82.0,50.0,-100.00,North,357,9.0,17.0,33,0.00,,,0.00,672.000000,,2013-08-17 23:02:00,
2013-08-17 16:11:00,82.0,50.0,-100.00,North,357,9.0,17.0,33,0.00,,,0.00,672.000000,,2013-08-17 23:11:00,
2013-08-17 16:42:00,79.0,50.0,-100.00,NNE,14,7.0,16.0,36,0.00,,,0.00,324.000000,,2013-08-17 23:42:00,
2013-08-17 16:52:00,79.0,50.0,-100.00,NNE,14,7.0,16.0,36,0.00,,,0.00,324.000000,,2013-08-17 23:52:00,
2013-08-17 17:01:00,79.0,50.0,-100.00,NNE,14,7.0,16.0,36,0.00,,,0.00,324.000000,,2013-08-18 00:01:00,
2013-08-17 17:11:00,79.0,50.0,-100.00,NNE,14,7.0,16.0,36,0.00,,,0.00,324.000000,,2013-08-18 00:11:00,
2013-08-17 17:42:00,79.0,49.0,-100.00,NNE,21,6.0,11.0,35,0.00,,,0.00,178.000000,,2013-08-18 00:42:00,
2013-08-17 17:52:00,79.0,49.0,-100.00,NNE,21,6.0,11.0,35,0.00,,,0.00,178.000000,,2013-08-18 00:52:00,
2013-08-17 18:01:00,79.0,49.0,-100.00,NNE,21,6.0,11.0,35,0.00,,,0.00,178.000000,,2013-08-18 01:01:00,
2013-08-17 18:11:00,79.0,49.0,-100.00,NNE,21,6.0,11.0,35,0.00,,,0.00,178.000000,,2013-08-18 01:11:00,
2013-08-17 18:42:00,78.0,49.0,-100.00,NE,48,6.0,12.0,36,0.00,,,0.00,194.000000,,2013-08-18 01:42:00,
2013-08-17 18:52:00,78.0,49.0,-100.00,NE,48,6.0,12.0,36,0.00,,,0.00,194.000000,,2013-08-18 01:52:00,
2013-08-17 19:02:00,78.0,49.0,-100.00,NE,48,6.0,12.0,36,0.00,,,0.00,194.000000,,2013-08-18 02:02:00,
2013-08-17 19:11:00,78.0,49.0,-100.00,NE,48,6.0,12.0,36,0.00,,,0.00,194.000000,,2013-08-18 02:11:00,
2013-08-17 19:42:00,76.0,51.0,-100.00,North,359,6.0,15.0,41,0.00,,,0.00,143.000000,,2013-08-18 02:42:00,
2013-08-17 19:52:00,76.0,51.0,-100.00,North,359,6.0,15.0,41,0.00,,,0.00,143.000000,,2013-08-18 02:52:00,
2013-08-17 20:02:00,76.0,51.0,-100.00,North,359,6.0,15.0,41,0.00,,,0.00,143.000000,,2013-08-18 03:02:00,
2013-08-17 20:11:00,76.0,51.0,-100.00,North,359,6.0,15.0,41,0.00,,,0.00,143.000000,,2013-08-18 03:11:00,
2013-08-17 20:43:00,69.0,50.0,-100.00,NNE,13,5.0,17.0,50,0.00,,,0.00,52.000000,,2013-08-18 03:43:00,
2013-08-17 20:53:00,69.0,50.0,-100.00,NNE,13,5.0,17.0,50,0.00,,,0.00,52.000000,,2013-08-18 03:53:00,
2013-08-17 21:02:00,-999.0,-99.9,-100.00,NNE,13,5.0,17.0,-999,0.00,,,0.00,52.000000,,2013-08-18 04:02:00,
2013-08-17 21:12:00,69.0,50.0,-100.00,NNE,13,5.0,17.0,50,0.00,,,0.00,52.000000,,2013-08-18 04:12:00,
2013-08-17 21:42:00,64.0,49.0,-100.00,North,2,3.0,10.0,58,0.00,,,0.00,0.000000,,2013-08-18 04:42:00,
2013-08-17 21:53:00,64.0,49.0,-100.00,North,2,3.0,10.0,58,0.00,,,0.00,0.000000,,2013-08-18 04:53:00,
2013-08-17 22:02:00,64.0,49.0,-100.00,North,2,3.0,10.0,58,0.00,,,0.00,0.000000,,2013-08-18 05:02:00,
2013-08-17 22:12:00,64.0,49.0,-100.00,North,2,3.0,10.0,58,0.00,,,0.00,0.000000,,2013-08-18 05:12:00,
2013-08-17 22:42:00,59.0,48.0,-100.00,SW,226,1.0,5.0,68,0.00,,,0.00,0.000000,,2013-08-18 05:42:00,
2013-08-17 22:52:00,59.0,48.0,-100.00,SW,226,1.0,5.0,68,0.00,,,0.00,0.000000,,2013-08-18 05:52:00,
2013-08-17 23:01:00,59.0,48.0,-100.00,SW,226,1.0,5.0,68,0.00,,,0.00,0.000000,,2013-08-18 06:01:00,
2013-08-17 23:11:00,59.0,48.0,-100.00,SW,226,1.0,5.0,68,0.00,,,0.00,0.000000,,2013-08-18 06:11:00,
2013-08-17 23:42:00,55.0,47.0,-100.00,WSW,248,3.0,6.0,74,0.00,,,0.00,0.000000,,2013-08-18 06:42:00,
2013-08-17 23:52:00,55.0,47.0,-100.00,WSW,248,3.0,6.0,74,0.00,,,0.00,0.000000,,2013-08-18 06:52:00,